Wind_Speed
35 35 34 33 33 33 33 32 32 32 31 31 31 31 31 30 30 30 30 30 30 30 30 30 31 31 31 31 31 32 32 33 33 33 34 34 34 34 35 35 35 35 35
37 37 37 36 35 35 34 34 34 34 33 33 33 33 33 33 33 33 33 32 32 32 32 33 33 33 33 33 33 33 34 35 36 36 36 36 36 36 37 37 37 37 37
39 39 39 38 37 37 36 36 36 36 36 35 35 35 35 35 35 35 35 35 35 35 35 35 35 35 35 35 35 36 36 36 37 38 38 38 38 38 38 39 39 39 39
39 39 39 38 38 38 38 38 38 38 38 38 38 38 37 37 37 37 37 36 37 37 37 37 37 37 37 37 38 38 38 39 39 39 39 39 39 39 40 40 41 41 41
41 40 40 40 39 39 40 40 40 40 40 40 40 40 39 39 39 38 38 38 38 38 38 39 39 40 39 39 40 40 40 40 41 41 41 41 41 41 41 42 42 43 44
42 42 41 40 40 41 41 41 41 41 42 42 42 41 41 41 41 40 40 40 40 40 40 40 40 41 41 41 41 41 42 42 43 42 42 43 43 43 44 44 44 45 46
43 43 43 43 42 42 42 42 42 43 43 43 44 44 44 43 43 42 42 42 42 41 42 42 42 42 42 42 42 43 43 44 44 44 45 45 45 45 45 45 46 47 48
43 43 45 45 44 43 42 43 43 43 43 44 44 45 45 45 44 43 43 44 44 43 43 43 44 44 44 44 44 45 46 46 47 47 47 47 47 48 48 48 47 47 47
46 46 45 45 46 45 43 42 43 44 44 45 46 46 46 46 44 44 45 45 45 45 45 45 45 46 46 47 47 47 48 48 48 48 48 49 49 50 49 49 48 47 48
46 47 46 46 46 46 46 45 45 45 45 46 47 47 48 48 47 47 47 47 47 47 47 46 46 47 48 49 49 49 50 50 49 50 50 50 50 50 50 50 50 50 49
46 47 48 48 47 47 47 47 47 47 46 47 47 47 48 48 48 48 48 48 48 48 48 48 49 49 49 49 50 50 51 51 51 51 51 51 51 51 51 51 51 51 50
47 48 48 49 50 49 48 48 48 48 48 48 48 49 49 49 48 49 49 48 49 49 49 50 50 50 50 50 51 51 51 52 52 52 52 52 52 52 51 51 50 50 49
48 48 49 49 49 49 49 49 48 49 49 49 49 50 49 49 49 50 50 50 50 51 51 52 51 51 51 51 52 52 52 52 52 52 52 52 52 51 50 50 49 49 49
48 48 49 49 48 49 49 50 50 50 50 50 51 51 50 50 50 50 51 51 52 51 51 51 51 51 51 51 51 52 52 52 53 52 52 51 51 50 50 49 49 49 49
49 49 49 50 50 49 50 51 51 52 51 51 51 51 52 52 51 51 52 52 52 52 51 51 51 51 51 52 51 52 52 52 52 51 51 50 50 50 50 50 49 49 49
50 50 50 50 51 51 51 52 53 53 53 52 51 50 51 51 51 52 53 53 52 52 52 51 52 52 52 52 52 52 52 51 50 50 50 50 50 51 50 49 49 48 48
49 50 50 50 51 51 52 53 53 54 54 53 52 51 52 52 52 52 52 52 52 52 51 51 51 52 52 51 51 51 50 50 49 49 49 49 50 49 48 47 47 47 47
47 48 49 50 51 51 52 52 53 53 53 52 53 53 53 53 52 52 52 51 51 52 52 51 50 50 51 50 50 50 50 50 49 49 49 49 48 48 47 46 47 47 47
46 47 48 48 49 50 51 51 51 52 51 51 52 53 53 52 51 51 51 51 51 51 50 50 49 50 50 50 49 50 50 49 49 49 49 48 48 47 46 47 47 47 47
45 46 47 47 48 49 50 49 49 49 49 49 50 50 51 51 50 50 50 50 50 50 49 49 49 49 49 49 49 48 48 48 48 48 47 46 46 46 47 46 46 46 46
43 44 45 45 46 46 46 46 46 48 48 48 48 48 49 49 48 49 49 50 49 49 49 48 48 49 48 48 48 48 47 47 47 47 46 45 45 45 45 45 45 45 44
40 41 41 43 43 42 42 42 43 44 45 46 46 46 46 46 47 47 48 48 49 49 48 48 48 48 47 47 47 47 46 46 45 44 44 43 43 43 43 43 43 42 42
37 38 38 39 39 39 40 40 40 41 42 43 43 43 43 43 44 44 45 46 47 47 47 47 46 46 46 46 46 46 46 45 44 43 42 41 41 41 41 40 40 39 38
32 34 34 34 35 36 37 37 37 37 37 37 39 40 40 41 41 42 42 43 43 44 44 43 43 43 43 43 44 44 43 43 42 40 40 40 40 39 39 38 37 36 35
29 30 31 31 32 33 34 35 34 34 34 35 35 37 38 39 38 39 39 40 40 40 39 39 39 39 39 40 40 41 40 40 38 37 38 38 37 37 37 36 36 34 34
26 28 29 29 30 31 32 33 33 33 33 33 33 34 35 35 35 35 36 36 36 36 36 36 36 36 36 37 37 37 37 37 36 35 35 35 34 34 33 33 34 33 33
Wind_Direction
253 254 254 254 255 255 256 257 258 259 259 260 261 261 261 261 263 265 266 267 268 268 269 270 272 274 275 277 278 280 282 284 285 286 287 288 288 287 287 287 288 288 288
252 253 254 255 256 256 257 257 258 258 258 259 260 261 262 262 262 264 266 267 267 268 269 270 271 273 274 276 279 281 283 284 285 285 286 287 288 288 287 287 288 288 287
253 253 255 255 257 258 258 258 258 259 259 260 261 262 262 263 264 265 267 267 267 267 269 270 272 273 274 275 278 280 282 284 285 285 286 286 286 286 286 287 288 288 288
252 253 254 255 256 258 258 259 259 259 260 260 260 262 263 264 265 266 267 268 268 268 269 270 271 273 274 275 277 279 281 283 284 285 285 285 285 285 286 287 287 287 287
253 253 255 255 256 257 259 259 259 259 260 260 261 262 262 265 265 266 267 269 269 269 269 271 272 272 274 275 277 278 280 281 283 283 284 285 284 285 285 286 286 286 286
254 254 254 256 257 258 259 260 260 260 260 260 261 262 262 264 264 266 267 268 268 268 269 271 272 273 273 274 276 277 279 281 282 282 283 284 284 284 285 286 286 286 286
254 255 255 256 257 258 259 259 260 260 260 260 261 262 263 264 265 266 266 268 268 268 269 271 272 273 273 274 275 277 278 279 280 281 283 284 284 285 285 285 286 287 287
253 255 255 255 257 257 258 258 259 259 259 260 262 263 263 263 265 265 267 268 268 269 269 270 272 273 273 274 276 277 278 279 280 281 282 283 284 285 285 285 286 286 286
253 254 255 256 256 257 257 257 258 259 260 261 262 264 264 263 264 266 268 268 268 269 269 271 272 272 274 275 276 277 279 280 280 280 281 282 283 284 284 283 283 284 285
254 255 256 256 257 257 257 257 259 259 260 261 262 264 264 264 264 265 267 268 269 269 269 271 272 273 274 275 276 277 278 279 280 281 282 282 283 283 283 283 282 283 284
254 255 256 256 257 257 258 259 260 261 262 263 264 265 265 265 265 266 267 269 269 269 270 271 272 273 274 275 276 277 278 279 280 281 282 283 283 283 283 283 283 283 283
256 255 256 257 257 257 258 258 259 262 263 264 265 266 266 266 266 267 268 269 269 270 271 272 273 274 274 275 276 277 278 279 280 281 282 283 283 283 283 283 283 282 282
258 257 257 258 257 257 258 258 260 262 263 264 265 266 267 268 268 268 268 269 270 271 272 273 274 275 275 275 275 276 277 279 280 281 282 283 282 283 283 283 282 282 281
260 260 259 259 258 259 259 260 260 263 264 264 265 265 267 268 269 269 270 271 272 272 273 274 275 275 275 275 276 276 277 279 280 281 282 283 282 283 283 283 282 281 280
260 260 260 258 258 258 260 260 262 263 264 265 265 265 266 267 269 269 270 271 272 272 273 274 274 275 275 276 276 277 278 279 280 280 281 282 282 282 283 283 282 280 281
260 260 260 259 259 260 261 262 262 263 264 265 266 265 266 268 269 269 270 271 272 273 273 273 273 274 274 275 276 277 278 279 279 280 281 281 282 283 282 282 281 281 280
261 261 261 261 260 260 261 262 262 263 264 264 265 265 266 267 269 270 270 271 272 273 273 272 273 273 273 275 276 276 277 277 278 280 280 281 281 282 282 281 280 281 280
262 262 262 262 261 261 262 262 262 262 263 264 264 265 267 268 269 269 270 271 272 272 273 272 272 273 274 276 277 276 277 278 279 280 281 281 281 281 281 282 281 281 281
264 264 263 263 263 263 263 262 262 263 264 265 265 267 268 268 269 270 271 271 272 272 272 273 273 273 275 277 277 277 277 279 280 281 281 281 281 281 282 283 283 283 282
266 265 264 264 264 263 264 264 264 265 266 266 267 268 268 268 268 270 271 272 273 273 273 273 273 274 275 277 277 277 278 280 280 281 281 281 281 282 283 284 284 284 283
267 267 265 266 266 266 266 266 265 265 266 267 268 268 267 268 268 270 271 272 272 273 274 274 275 275 277 278 277 278 279 279 279 281 281 281 281 282 283 285 285 284 283
269 268 267 266 267 267 267 267 267 267 267 268 268 268 268 269 269 270 271 272 273 273 274 275 275 276 277 277 276 277 278 278 279 279 280 280 281 282 282 284 286 285 283
270 269 268 268 267 268 268 267 268 268 269 268 267 267 267 269 269 270 272 273 273 273 273 274 275 275 276 276 276 276 277 278 278 278 278 279 280 282 283 285 285 285 284
273 271 270 269 268 268 268 269 268 269 269 269 268 268 268 268 270 271 272 273 273 273 273 274 275 275 275 274 274 275 276 277 277 277 277 278 278 280 282 283 284 284 283
277 274 272 271 269 269 269 269 270 270 270 270 271 270 270 269 270 271 272 273 274 274 274 275 275 276 276 275 275 275 276 276 276 276 277 278 278 279 281 281 281 280 281
279 275 274 273 271 271 271 271 271 271 271 271 272 273 272 270 270 271 273 273 273 274 274 274 275 275 276 276 276 276 276 276 276 277 277 278 279 279 280 280 280 280 280
Height
5779 5781 5783 5784 5786 5787 5789 5790 5791 5792 5793 5795 5795 5796 5797 5798 5799 5800 5800 5800 5801 5801 5801 5801 5801 5801 5801 5801 5801 5801 5800 5799 5798 5797 5796 5795 5793 5792 5790 5789 5787 5785 5783
5771 5773 5775 5776 5778 5780 5781 5783 5784 5785 5786 5787 5788 5789 5790 5791 5792 5792 5793 5793 5793 5794 5794 5794 5794 5794 5794 5794 5794 5793 5793 5792 5791 5789 5788 5787 5785 5784 5782 5781 5779 5777 5775
5763 5765 5767 5768 5770 5771 5773 5774 5776 5778 5779 5780 5781 5782 5783 5783 5784 5784 5784 5785 5785 5786 5786 5787 5787 5787 5786 5786 5786 5785 5784 5783 5782 5781 5780 5778 5777 5775 5774 5772 5770 5768 5766
5753 5755 5758 5759 5761 5762 5764 5766 5767 5769 5770 5772 5773 5774 5775 5775 5776 5776 5776 5776 5777 5777 5778 5778 5778 5778 5778 5778 5778 5777 5776 5775 5773 5772 5771 5769 5768 5766 5765 5763 5761 5759 5757
5744 5746 5748 5750 5752 5753 5755 5757 5758 5760 5761 5762 5763 5765 5766 5767 5767 5768 5768 5768 5769 5769 5769 5770 5770 5769 5769 5769 5768 5767 5766 5765 5764 5763 5761 5760 5759 5757 5755 5753 5751 5749 5747
5735 5737 5739 5741 5742 5744 5745 5747 5748 5750 5751 5752 5753 5755 5756 5757 5758 5759 5759 5759 5760 5760 5760 5760 5760 5760 5760 5759 5759 5758 5757 5756 5754 5753 5752 5750 5749 5747 5745 5743 5741 5739 5736
5725 5727 5729 5731 5732 5734 5735 5737 5738 5739 5741 5742 5743 5745 5746 5747 5748 5749 5749 5750 5750 5750 5751 5751 5750 5750 5750 5749 5748 5747 5746 5745 5744 5743 5741 5740 5738 5736 5735 5732 5730 5727 5725
5715 5717 5719 5721 5722 5724 5725 5726 5727 5728 5730 5732 5733 5734 5736 5738 5738 5739 5739 5740 5740 5740 5740 5740 5740 5740 5739 5739 5738 5737 5736 5734 5733 5732 5730 5729 5727 5725 5723 5721 5718 5716 5714
5704 5706 5708 5710 5712 5713 5714 5716 5717 5719 5720 5721 5722 5723 5725 5726 5728 5728 5729 5729 5729 5729 5729 5729 5729 5729 5728 5727 5727 5725 5724 5723 5722 5720 5718 5717 5715 5713 5711 5708 5706 5704 5702
5693 5695 5697 5699 5701 5703 5704 5705 5706 5707 5709 5710 5711 5712 5713 5715 5716 5717 5718 5718 5718 5718 5718 5717 5717 5717 5716 5716 5715 5713 5712 5711 5709 5708 5706 5704 5702 5700 5698 5696 5694 5691 5689
5682 5684 5686 5688 5689 5691 5693 5694 5695 5697 5698 5699 5700 5701 5702 5703 5703 5705 5706 5707 5706 5706 5706 5706 5705 5705 5704 5703 5702 5701 5700 5698 5697 5695 5693 5691 5689 5687 5685 5682 5680 5678 5676
5670 5672 5674 5676 5678 5680 5681 5683 5684 5685 5686 5688 5688 5689 5690 5691 5692 5693 5694 5695 5695 5695 5694 5693 5693 5692 5691 5690 5689 5688 5687 5685 5684 5682 5680 5678 5675 5673 5671 5668 5667 5665 5663
5658 5660 5662 5664 5665 5668 5669 5671 5672 5674 5674 5676 5676 5677 5678 5679 5679 5680 5681 5682 5682 5682 5681 5681 5680 5679 5678 5677 5676 5675 5673 5672 5670 5669 5667 5664 5662 5659 5657 5655 5653 5652 5650
5646 5647 5650 5651 5653 5655 5657 5659 5660 5661 5662 5663 5664 5665 5665 5666 5667 5667 5668 5668 5668 5669 5669 5668 5667 5665 5664 5663 5662 5661 5660 5658 5657 5655 5653 5651 5649 5647 5645 5643 5641 5639 5637
5633 5635 5637 5639 5641 5643 5644 5646 5647 5648 5649 5650 5650 5651 5652 5653 5653 5654 5654 5654 5655 5655 5656 5656 5654 5652 5651 5650 5648 5647 5646 5645 5643 5642 5640 5638 5636 5634 5632 5630 5627 5626 5624
5620 5622 5624 5626 5628 5630 5631 5632 5634 5635 5636 5636 5637 5638 5639 5640 5640 5640 5640 5640 5640 5640 5641 5642 5640 5639 5637 5636 5635 5634 5632 5631 5630 5628 5626 5625 5622 5620 5618 5616 5614 5612 5611
5607 5609 5611 5612 5614 5616 5617 5619 5620 5621 5622 5623 5623 5624 5625 5625 5626 5626 5626 5626 5626 5625 5626 5627 5626 5624 5623 5622 5621 5619 5618 5617 5616 5615 5613 5611 5609 5607 5604 5603 5601 5599 5598
5594 5596 5597 5599 5601 5602 5603 5605 5606 5607 5608 5609 5609 5610 5611 5611 5612 5612 5612 5612 5611 5611 5611 5612 5612 5610 5609 5608 5607 5606 5605 5603 5602 5601 5599 5597 5595 5593 5591 5589 5588 5586 5584
5581 5582 5584 5585 5587 5588 5589 5591 5592 5593 5594 5595 5595 5596 5597 5598 5598 5598 5598 5598 5597 5597 5597 5597 5598 5597 5596 5594 5593 5592 5591 5590 5588 5587 5585 5583 5581 5579 5578 5576 5574 5572 5570
5568 5570 5571 5572 5573 5575 5576 5577 5579 5580 5581 5582 5582 5583 5583 5584 5585 5585 5585 5584 5584 5583 5583 5583 5584 5583 5582 5581 5579 5579 5578 5577 5575 5573 5571 5570 5568 5566 5564 5562 5561 5559 5557
5556 5556 5558 5559 5560 5561 5562 5564 5566 5567 5568 5568 5569 5569 5570 5570 5571 5571 5571 5571 5571 5570 5570 5570 5570 5570 5569 5567 5566 5565 5565 5564 5563 5560 5559 5557 5556 5554 5551 5549 5547 5545 5543
5544 5544 5546 5547 5548 5549 5550 5551 5552 5554 5555 5556 5556 5556 5557 5557 5558 5558 5558 5558 5557 5557 5557 5557 5557 5556 5555 5554 5553 5552 5551 5551 5551 5549 5547 5546 5543 5541 5539 5537 5535 5532 5530
5533 5534 5535 5536 5537 5538 5538 5539 5540 5541 5542 5543 5544 5544 5545 5545 5545 5545 5545 5544 5544 5544 5544 5544 5543 5543 5542 5541 5540 5540 5538 5538 5537 5536 5534 5534 5532 5530 5528 5525 5523 5521 5519
5524 5524 5525 5525 5527 5528 5528 5529 5530 5531 5531 5532 5532 5532 5533 5533 5533 5533 5533 5532 5532 5531 5531 5531 5531 5530 5529 5528 5527 5527 5526 5525 5525 5523 5521 5522 5520 5518 5516 5514 5512 5510 5509
5515 5515 5516 5516 5517 5518 5518 5519 5520 5521 5521 5521 5521 5521 5521 5522 5522 5522 5522 5521 5521 5520 5519 5519 5518 5518 5517 5516 5515 5514 5514 5513 5513 5513 5510 5509 5509 5507 5506 5504 5502 5500 5499
5508 5508 5508 5508 5509 5509 5510 5510 5510 5511 5512 5512 5512 5512 5511 5511 5511 5511 5511 5510 5510 5509 5509 5508 5508 5507 5506 5505 5504 5503 5502 5502 5502 5502 5500 5499 5498 5496 5496 5495 5492 5491 5490